[[{"header":{"parameterUnit":"m.s-1","parameterCategory":1,"la1":30.2992,"la2":30.254,"lo1":-89.0895,"lo2":-89.0443,"dy":0.0025,"dx":0.0025,"nx":19,"ny":19,"refTime":"2026-04-20T21:00:00:Z","depth":0,"parameterNumber":2,"parameterNumberName":"U-component_of_WINDS"},"data":[0,0,0,-5.7113,-5.7119,-5.7348,-5.7348,-5.7699,-5.7702,0,0,0,0,0,0,0,0,0,0,0,-5.7081,-5.7085,-5.7113,-5.7119,-5.7348,-5.7348,-5.7698,-5.7702,0,0,0,0,0,0,0,0,0,0,0,-5.708,-5.7084,-5.7088,-5.712,-5.7347,-5.7348,-5.7697,-5.7504,0,0,0,0,0,0,0,0,0,0,-5.7272,-5.7277,-5.7083,-5.7089,-5.7122,-5.7347,-5.7348,-5.7494,-5.7516,-5.762,0,-5.7723,0,-5.7719,-5.7729,-5.7731,0,0,0,-5.7093,-5.7259,-5.7288,-5.7089,-5.7124,-5.7347,-5.7237,-5.7505,-5.7531,-5.765,-5.7727,-5.7739,-5.7724,-5.7732,-5.7734,-5.8427,-5.8431,0,0,-5.708,-5.7142,-5.7271,-5.7307,-5.7276,-5.723,-5.7245,-5.752,-5.7608,-5.7728,-5.7746,-5.773,-5.7735,-5.7738,-5.8422,-5.8428,0,0,0,-5.7062,-5.7134,-5.7155,-5.7294,-5.7331,-5.7237,-5.7254,-5.7595,-5.7597,-5.7749,-5.7734,-5.7737,-5.7742,-5.8417,-5.8424,-5.8708,0,0,0,-5.7053,-5.7123,-5.7151,-5.7191,-5.7327,-5.7466,-5.7325,-5.7578,-5.7607,-5.7733,-5.7737,-5.7746,-5.8412,-5.8421,-5.8689,-5.8832,0,0,0,-5.7054,-5.7123,-5.7168,-5.7194,-5.7294,-5.746,-5.7477,-5.7583,-5.76,-5.7731,-5.7747,-5.8409,-5.842,-5.8673,-5.8805,-5.9034,0,0,0,-5.7073,-5.7416,-5.7174,-5.7551,-5.7293,-5.7634,-5.7474,-5.7725,-5.7871,-5.7739,-5.8413,-5.8424,-5.8668,-5.8788,-5.9017,-5.9239,-5.9337,0,0,-5.754,-5.7475,-5.7691,-5.7481,-5.7881,-5.7594,-5.8035,-5.811,-5.8065,-5.8309,-5.8325,-5.8695,-5.8803,-5.903,-5.9862,-5.994,0,0,0,-5.786,-5.8018,-5.811,-5.8253,-5.8319,-5.8388,-5.8388,-5.8416,-5.862,-5.8203,-5.8837,-5.8899,-5.903,-5.9133,-5.92,-5.9309,-5.8474,-5.8473,-5.8472,-5.8611,-5.8536,-5.8891,-5.8845,-5.8985,-5.8983,-5.909,-5.9127,-5.9009,-5.9161,-5.9233,-5.9747,-5.9871,-5.992,-6.0034,-5.9343,-5.9344,-5.9345,-5.9345,-5.929,-5.9501,-5.9338,-5.9623,-5.9543,-5.9781,-5.9792,-5.9701,-5.9912,-5.9686,-5.9797,-5.9559,-6.0008,-6.0104,-5.9366,-5.9362,-5.936,-5.9358,-5.9356,-5.9775,-5.9863,-5.9892,-6.0091,-6.0253,-6.0192,-6.0403,-6.032,-6.0244,-6.0354,-6.0422,-6.0417,-6.0403,-6.0392,-6.0394,-6.0396,-6.0397,-6.0398,-6.04,-6.0268,-6.029,-6.0478,-6.0578,-6.0659,-6.0755,-6.0757,-6.0834,-6.0899,-6.0822,-6.0822,-6.0692,-6.0066,-5.9911,-6.0427,-6.0422,-6.0419,-6.0416,-6.0414,-6.0987,-6.0811,-6.1102,-6.1184,-6.1294,-6.1461,-6.1352,-6.1518,-6.1569,-6.1676,-6.1521,-6.1071,-6.0998,-6.0944,-6.0816,-6.1535,-6.1535,-6.1535,-6.1535,-6.1397,-6.1352,-6.163,-6.1767,-6.189,-6.1823,-6.2153,-6.2158,-6.2135,-6.2162,-6.2046,-6.1868,-6.1817,-6.1774,-6.1702,-6.1581,-6.2479,-6.248,-6.248,-6.1836,-6.1799,-6.2097,-6.2073,-6.2153,-6.2224,-6.2532,-6.2695,-6.2632,-6.2517,-6.2182,-6.2143,-6.1854,-6.1764,-6.1644,-6.1534,-6.1311,0,0]},{"header":{"parameterUnit":"m.s-1","parameterCategory":1,"la1":30.2992,"la2":30.254,"lo1":-89.0895,"lo2":-89.0443,"dy":0.0025,"dx":0.0025,"nx":19,"ny":19,"refTime":"2026-04-20T21:00:00:Z","depth":0,"parameterNumber":3,"parameterNumberName":"V-component_of_WINDS"},"data":[0,0,0,-0.3028,-0.3028,-0.3009,-0.3009,-0.2966,-0.2966,0,0,0,0,0,0,0,0,0,0,0,-0.3024,-0.3023,-0.3028,-0.3028,-0.3009,-0.3009,-0.2966,-0.2966,0,0,0,0,0,0,0,0,0,0,0,-0.3024,-0.3023,-0.3023,-0.3028,-0.3009,-0.3009,-0.2966,-0.2987,0,0,0,0,0,0,0,0,0,0,-0.3008,-0.2995,-0.3024,-0.3023,-0.3027,-0.3009,-0.3009,-0.2988,-0.2986,-0.2967,0,-0.2949,0,-0.2956,-0.2962,-0.2961,0,0,0,-0.3035,-0.2997,-0.3001,-0.3023,-0.3027,-0.3009,-0.302,-0.2987,-0.2984,-0.2963,-0.2948,-0.2947,-0.2956,-0.2961,-0.2961,-0.2829,-0.2828,0,0,-0.3036,-0.3015,-0.3003,-0.2998,-0.3002,-0.302,-0.3019,-0.2986,-0.2967,-0.2948,-0.2946,-0.2955,-0.2961,-0.296,-0.283,-0.2828,0,0,0,-0.3034,-0.3015,-0.3021,-0.3,-0.2998,-0.3019,-0.3018,-0.2969,-0.2972,-0.2946,-0.2954,-0.2961,-0.296,-0.2831,-0.2829,-0.276,0,0,0,-0.3035,-0.3014,-0.3021,-0.3008,-0.2998,-0.2983,-0.3002,-0.2975,-0.2972,-0.2955,-0.2961,-0.2959,-0.2832,-0.283,-0.2764,-0.273,0,0,0,-0.3028,-0.3014,-0.3008,-0.3007,-0.2998,-0.2985,-0.2986,-0.2975,-0.2976,-0.2961,-0.2959,-0.2833,-0.283,-0.2768,-0.2736,-0.2687,0,0,0,-0.3015,-0.2948,-0.3006,-0.2933,-0.2998,-0.2942,-0.2987,-0.2947,-0.2926,-0.296,-0.2832,-0.2829,-0.2769,-0.274,-0.2691,-0.264,-0.2618,0,0,-0.2918,-0.2935,-0.2894,-0.2946,-0.2874,-0.2947,-0.2865,-0.2866,-0.2884,-0.2846,-0.2843,-0.2762,-0.2737,-0.2688,-0.2502,-0.2484,0,0,0,-0.2856,-0.2825,-0.2811,-0.279,-0.2789,-0.2784,-0.28,-0.28,-0.2768,-0.286,-0.2733,-0.2718,-0.269,-0.2667,-0.2652,-0.2627,-0.2818,-0.2819,-0.2819,-0.2687,-0.2713,-0.2645,-0.2668,-0.2647,-0.2662,-0.2647,-0.2649,-0.2683,-0.2652,-0.264,-0.2525,-0.2497,-0.2485,-0.246,-0.2617,-0.2617,-0.2617,-0.2617,-0.2545,-0.2505,-0.2549,-0.2499,-0.2526,-0.2484,-0.2495,-0.252,-0.2483,-0.2537,-0.2513,-0.2567,-0.2465,-0.2444,-0.2612,-0.2613,-0.2613,-0.2614,-0.2614,-0.2435,-0.242,-0.2421,-0.2391,-0.2365,-0.2391,-0.2352,-0.2379,-0.2404,-0.2381,-0.2369,-0.237,-0.2373,-0.2374,-0.2373,-0.2373,-0.2373,-0.2372,-0.2372,-0.2321,-0.2324,-0.2289,-0.228,-0.2268,-0.2256,-0.2269,-0.2258,-0.2252,-0.2275,-0.2275,-0.2308,-0.2451,-0.2484,-0.2366,-0.2367,-0.2368,-0.2368,-0.2369,-0.2164,-0.2203,-0.2149,-0.2136,-0.2127,-0.2096,-0.2131,-0.2105,-0.21,-0.2079,-0.2118,-0.222,-0.2239,-0.2251,-0.2279,-0.2115,-0.2115,-0.2115,-0.2115,-0.2069,-0.2082,-0.2031,-0.2009,-0.1991,-0.2016,-0.195,-0.1959,-0.1974,-0.1971,-0.1999,-0.2039,-0.2051,-0.2063,-0.208,-0.2106,-0.1901,-0.1901,-0.1901,-0.1973,-0.1984,-0.1924,-0.194,-0.1933,-0.1926,-0.1865,-0.1836,-0.1862,-0.1893,-0.1969,-0.1978,-0.2043,-0.2063,-0.2095,-0.212,-0.2169,0,0]}]]